sat.trackr.live / text

‹ back to catalog

STARLINK-36287

NORAD 67708 · 2026-025R

PAYLOAD ACTIVE UNKNOWN

§ Identity

Operator
Country
US
Launch date
2026-02-07
Launch site
AFWTR
Launch vehicle
Mass (kg)
RCS (m²)

Purposes: comms

External: N2YO · Heavens-Above · Gunter

§ Orbital elements

Epoch: 2026-09-19T13:16:30.258336Z

Period
93.91 min
Inclination
97.2847°
Eccentricity
0.0001005
Mean motion
15.33450864 rev/d
Perigee alt
464.8 km
Apogee alt
466.2 km
Semi-major
6,843.7 km
B*
7.1410e-4
RAAN
12.5137°
Arg perigee
95.8969°
Mean anomaly
264.2388°
Rev number
3,573

§ Raw data

STARLINK-362871 67708U 26025R   26262.55312799  .00023053  00000+0  71410-3 0  99902 67708  97.2847  12.5137 0001005  95.8969 264.2388 15.33450864 35738

JSON: /api/v1/satellites/67708 · /tle

For live sub-satellite position, see the globe view (requires WebGL).

§ Visibility from observer

Set your observer location to see the next 7 days of passes ≥ 10°. The values pass through the URL so the page stays shareable.

No JS? Fill the form by hand. The geolocation button needs JavaScript.